Vertical_Velocity
4 1 3 1 2 0 -1 -2 -1 0 -1 1 2 -2 -3 2 -0 -2 5 3 0 -1 -2 3 2 1 -2 -0 -1 -0 4 0 2 2 0 -2 1 -0 -0 -0 -1 -1 -2 -0 2 1 2 -3 -2
-3 -0 3 1 -2 -1 -4 -1 -0 -1 0 2 -3 -2 -2 3 1 -2 3 1 3 -2 -1 3 -0 1 -2 -3 -0 2 0 1 0 -1 1 -1 -1 -1 -1 1 -1 0 3 3 1 1 -2 -0 -3
-0 1 3 -1 -0 -0 -1 1 0 3 3 -1 -1 -1 -0 3 2 -2 4 -3 1 -0 -0 4 0 -2 -3 -2 -0 -0 -0 -2 -1 -0 -1 0 -1 -1 -1 1 -2 1 -0 -0 0 -1 -2 -1 -1
-5 0 1 1 -0 -4 -1 1 -1 2 3 1 -1 -1 -0 2 -2 2 1 1 0 0 3 0 -1 -1 -3 -1 -2 2 0 1 -1 -2 -1 1 -2 -2 0 -3 1 1 -0 2 -0 -2 -3 -1 0
4 4 -1 -1 -1 -1 0 -1 -1 0 0 3 0 4 0 2 2 1 -2 0 -1 -2 1 -1 1 -2 -2 -2 2 0 2 -1 -2 -1 2 0 -1 1 -1 1 1 1 2 2 -0 -3 -2 1 1
0 2 -2 -0 -1 0 1 -2 0 -0 1 6 -5 -3 3 2 0 1 -1 -1 2 -3 -3 -2 1 -0 -1 0 -0 2 -0 -1 -2 -1 1 -0 1 -1 0 1 0 2 1 0 0 -1 0 -0 1
-4 -1 -1 -0 -1 0 0 2 -2 -1 0 3 -4 -2 4 4 0 -2 2 -0 -1 1 -2 -2 -2 -1 -1 0 -1 -0 1 -3 -2 1 2 1 1 -1 -1 2 1 2 1 0 -3 -1 -1 -0 -1
-1 -3 -0 -1 -0 -1 2 0 -5 -5 3 -4 -4 -3 1 -3 1 -0 1 0 -1 -0 0 -2 -3 -2 -3 -1 -1 1 1 0 1 2 1 3 -1 -2 -1 0 1 1 0 -2 -4 -2 -2 -2 1
0 -4 -1 -2 -0 -2 4 -2 8 -0 -6 4 -0 -3 -6 -1 3 2 1 2 2 2 1 -2 -1 -2 -0 0 -1 1 1 2 0 1 0 3 4 -2 -1 -2 -2 -1 2 0 -1 -2 -4 -4 -1
-2 -1 -3 -3 -1 -2 -1 -5 -3 -2 2 3 3 6 1 1 -0 -2 -4 -4 -2 -2 -2 -1 -2 -2 1 -1 -1 -0 1 1 0 1 0 -1 -1 -3 -2 -1 -0 -0 1 -1 3 1 1 -3 -3
1 -3 -2 -3 1 0 -0 2 -0 -2 2 -5 -7 -4 -1 1 2 -1 -1 -2 -9 -2 1 -4 -2 -1 -1 -3 -1 1 -0 1 -0 -1 -0 -1 -1 -1 -1 0 -3 -0 -1 2 -2 -1 2 4 1
3 -1 -1 -4 4 -0 -1 -2 0 -3 -2 1 -3 -3 -7 -4 -5 -6 -4 -4 -3 -5 -0 -1 -2 -2 -0 1 -2 1 -0 -0 -1 -0 0 -1 1 -1 -0 -0 -1 -2 1 3 4 3 7 1 2
3 -2 1 0 -0 0 6 -2 -9 -6 4 5 -2 8 1 -1 2 3 5 4 2 -2 -1 -3 -3 -1 0 -1 0 -1 -1 -0 0 -1 -2 -1 -1 0 -1 -0 1 -1 -2 -1 4 4 5 1 -1
-1 -1 -5 -4 -2 0 -1 -1 4 -6 2 4 1 3 3 0 -6 4 0 -2 -2 3 -2 -2 -2 -1 0 -0 0 -0 -0 3 -1 -1 0 -1 1 0 -0 -0 -0 1 1 4 -0 -1 -0 2 3
-3 1 -1 -0 -1 -4 4 5 -4 4 3 -0 3 2 0 -2 4 -4 -4 -5 -2 -1 2 -4 -1 0 -2 -0 3 -0 2 0 -2 -1 -2 -1 1 1 -2 -1 0 -1 5 -1 2 -2 -1 -2 6
0 -1 -0 -5 0 -4 -5 -14 -6 3 -4 0 1 -0 -1 1 -3 -1 -2 1 -3 2 -6 1 1 -1 -1 -2 0 1 0 -0 0 0 2 3 1 0 -2 -0 -0 2 1 -2 3 0 -2 -2 4
-2 -2 1 -6 -0 -1 -1 -4 -3 3 3 0 0 1 -2 2 1 -1 -2 -1 -1 -3 -1 -2 -0 -3 -3 -0 1 1 2 1 2 2 0 3 0 -1 -2 2 1 2 2 1 1 -1 0 -1 4
-3 1 0 -1 -1 1 1 -2 1 2 0 -4 -1 -1 1 -4 -13 -1 -2 -1 0 -0 1 5 3 0 -1 2 1 2 2 -1 1 -0 -2 2 -1 -1 0 0 2 1 3 1 2 -0 0 0 -2
-1 1 -1 -2 -2 -3 -2 -0 -1 1 7 3 1 -2 1 -14 2 4 1 2 5 3 -1 -5 -4 -3 -1 -3 -3 1 -5 -3 -3 -2 1 -1 -1 -1 -3 1 -0 1 1 0 1 1 -1 -1 0
1 0 -3 -3 -1 -2 -0 -3 -1 0 -8 -9 -6 -3 -3 13 -1 1 -6 -2 -7 -4 -2 2 -6 -2 -3 -2 -1 -1 -2 -2 0 0 2 1 -1 0 -0 -1 0 -0 1 -1 2 -1 -1 0 0
-0 -1 -1 -3 -1 -1 -2 -4 2 0 2 3 4 4 1 -1 -2 -1 -2 -11 -4 -6 -4 -3 -1 -1 1 -0 5 0 3 5 3 -1 -1 -4 -2 0 -1 4 2 -0 -0 0 2 -1 -2 -2 0
2 -2 -1 0 -2 -5 -5 -7 -1 -0 0 2 1 -0 -3 -5 0 4 -3 -9 -8 -14 -3 -0 2 -1 0 1 0 -3 -4 -4 -5 -4 2 1 1 -1 -1 1 2 1 1 -1 -0 1 -1 -1 -1
-9 -2 -2 -1 0 0 0 -1 -11 0 3 -2 -2 -2 -4 -7 -3 -7 -10 -8 -5 11 -7 -1 -1 1 2 -4 -4 -1 -2 -0 2 4 3 3 2 -1 2 1 0 0 -1 1 -3 -0 -1 -1 -1
-2 -1 -2 -1 -2 3 -6 -5 -6 -3 -11 -1 -1 -1 -3 -5 -4 -1 1 12 -4 5 4 4 3 -3 -0 -0 2 -3 -1 -3 1 -1 1 -0 -2 0 -2 1 -1 -0 0 -0 -0 2 0 -1 0
-0 -4 -3 -3 2 -7 -0 4 -19 -2 -2 -8 -6 -6 -4 -3 -0 -4 -3 -9 0 -9 -5 -0 -4 -4 -2 -2 0 -4 -4 -2 1 3 1 -2 -1 -5 -4 -1 -3 -4 -2 1 1 0 -0 1 -1
-2 -9 -8 -6 -2 -4 0 -6 -17 -6 -3 -4 1 -3 11 4 1 -6 -6 -4 -6 -4 -3 3 -2 1 2 1 -1 0 3 -3 -1 2 0 1 -2 -3 1 -0 -2 -3 -0 2 1 -0 1 1 -1
-4 1 -14 -4 -1 -2 -5 -9 -7 2 1 2 -2 3 -1 -3 -4 -7 1 -6 -1 -2 -5 -13 -4 1 -0 -1 4 0 1 2 -6 -4 1 1 3 -0 0 -0 -1 -1 1 0 1 -0 2 -0 -1
-17 -8 -7 -3 -1 -1 -3 -1 -7 1 -1 0 1 -3 -4 1 1 1 -2 -4 -0 -4 4 5 2 -5 -4 1 1 -3 -6 -3 -2 1 2 -1 1 0 -0 -1 -2 1 1 2 2 1 2 1 2
2 3 -0 -11 -5 -5 -2 -11 -7 -4 -4 -3 -3 -4 -5 -3 -5 3 -3 1 -1 13 3 -3 -0 -0 -7 1 2 1 -3 -3 3 -3 1 2 4 2 -1 -0 -2 -0 -1 1 0 1 3 2 1
-5 -4 -4 -5 -7 -1 -4 -16 -1 -2 -1 -1 -3 -7 -5 -4 -1 -5 -1 10 5 -0 1 -7 -1 -6 -0 1 -0 -2 4 1 1 -3 -1 2 -0 2 -1 -2 -1 -2 -1 -0 -2 -0 1 1 -2
Height
1505 1508 1510 1511 1517 1513 1513 1506 1497 1498 1499 1500 1502 1503 1507 1512 1514 1526 1523 1524 1528 1532 1537 1541 1544 1547 1549 1552 1556 1559 1561 1563 1565 1567 1568 1569 1569 1570 1570 1570 1569 1569 1568 1568 1568 1568 1568 1568 1568
1506 1509 1511 1509 1516 1522 1512 1498 1498 1497 1499 1501 1504 1507 1510 1515 1515 1518 1523 1528 1532 1536 1540 1543 1546 1549 1551 1555 1559 1561 1563 1565 1567 1569 1570 1570 1571 1572 1571 1571 1571 1570 1570 1570 1570 1570 1569 1570 1570
1508 1509 1510 1508 1513 1514 1512 1498 1499 1499 1499 1500 1506 1509 1513 1515 1516 1520 1525 1530 1534 1538 1542 1546 1548 1551 1554 1558 1561 1564 1565 1567 1569 1571 1572 1573 1573 1572 1572 1572 1572 1572 1572 1572 1571 1571 1571 1571 1571
1508 1509 1510 1510 1509 1498 1497 1497 1498 1500 1501 1501 1505 1512 1516 1516 1518 1522 1527 1532 1536 1540 1544 1548 1551 1554 1557 1560 1563 1565 1567 1569 1571 1572 1573 1574 1574 1574 1574 1574 1574 1574 1574 1573 1573 1572 1573 1573 1573
1509 1508 1508 1510 1506 1495 1492 1494 1498 1499 1502 1504 1505 1514 1518 1522 1522 1525 1529 1534 1538 1542 1546 1550 1553 1556 1559 1562 1564 1567 1569 1571 1573 1574 1574 1575 1575 1575 1575 1575 1575 1575 1576 1575 1575 1576 1575 1575 1575
1509 1505 1515 1519 1506 1495 1494 1495 1499 1501 1505 1506 1509 1512 1521 1523 1525 1528 1532 1537 1541 1544 1547 1551 1554 1558 1560 1563 1566 1569 1570 1572 1574 1575 1576 1576 1577 1576 1577 1577 1577 1577 1577 1577 1577 1578 1578 1578 1578
1510 1512 1512 1508 1504 1497 1496 1498 1500 1504 1507 1508 1508 1515 1522 1524 1528 1531 1535 1539 1543 1546 1549 1552 1555 1558 1562 1565 1567 1570 1572 1574 1575 1576 1577 1578 1578 1578 1578 1578 1579 1579 1579 1579 1579 1580 1580 1580 1580
1509 1511 1512 1507 1505 1502 1496 1498 1500 1503 1507 1509 1510 1515 1520 1522 1528 1532 1537 1541 1544 1547 1550 1553 1556 1559 1562 1565 1568 1571 1573 1575 1576 1577 1579 1580 1580 1580 1580 1580 1580 1580 1581 1581 1581 1582 1582 1582 1582
1509 1515 1517 1507 1503 1497 1494 1498 1502 1505 1506 1508 1509 1510 1514 1520 1527 1532 1536 1540 1544 1547 1550 1554 1557 1560 1562 1566 1569 1572 1574 1575 1577 1578 1580 1581 1581 1581 1582 1582 1582 1582 1582 1583 1583 1583 1583 1583 1583
1509 1516 1505 1494 1493 1493 1494 1496 1501 1504 1507 1509 1510 1512 1516 1520 1525 1529 1533 1536 1540 1545 1549 1553 1556 1559 1562 1566 1569 1571 1574 1576 1578 1579 1580 1581 1582 1582 1583 1583 1583 1583 1584 1584 1584 1584 1583 1584 1584
1504 1505 1494 1490 1489 1488 1494 1501 1501 1503 1507 1501 1502 1508 1514 1520 1524 1528 1532 1535 1538 1543 1548 1551 1555 1558 1562 1565 1568 1571 1574 1577 1578 1579 1580 1581 1582 1583 1584 1584 1584 1584 1585 1585 1585 1585 1585 1584 1584
1501 1494 1492 1490 1489 1491 1494 1498 1501 1501 1499 1499 1502 1502 1511 1517 1521 1525 1529 1534 1537 1541 1546 1550 1554 1556 1560 1564 1567 1571 1574 1576 1578 1579 1581 1582 1583 1584 1585 1585 1585 1585 1585 1586 1587 1586 1586 1585 1585
1495 1486 1489 1485 1488 1490 1492 1493 1496 1496 1501 1500 1503 1508 1510 1516 1520 1525 1530 1534 1537 1540 1544 1548 1552 1555 1559 1563 1566 1570 1573 1575 1577 1579 1581 1582 1584 1584 1585 1585 1586 1586 1586 1586 1586 1586 1586 1585 1585
1486 1486 1484 1482 1481 1486 1488 1489 1494 1491 1498 1501 1503 1507 1510 1513 1517 1524 1528 1531 1534 1539 1543 1547 1550 1554 1558 1561 1565 1568 1572 1574 1577 1578 1580 1582 1583 1584 1585 1585 1585 1586 1586 1586 1587 1586 1585 1585 1585
1484 1487 1483 1477 1477 1479 1481 1493 1486 1488 1493 1501 1505 1509 1512 1514 1518 1519 1524 1528 1533 1537 1542 1545 1549 1552 1556 1560 1564 1567 1570 1573 1576 1578 1579 1581 1583 1584 1584 1584 1585 1585 1585 1585 1586 1586 1585 1585 1585
1485 1485 1492 1472 1472 1474 1479 1486 1476 1485 1489 1498 1503 1506 1511 1514 1516 1518 1522 1527 1532 1536 1539 1543 1547 1550 1554 1558 1562 1566 1569 1572 1574 1576 1579 1580 1582 1583 1583 1584 1584 1584 1585 1585 1585 1584 1584 1584 1584
1493 1500 1492 1481 1469 1471 1477 1480 1470 1478 1484 1493 1499 1502 1505 1512 1515 1515 1519 1524 1529 1533 1537 1541 1544 1548 1552 1557 1561 1564 1568 1570 1573 1575 1577 1579 1581 1582 1582 1582 1583 1583 1583 1584 1584 1583 1582 1583 1583
1498 1497 1488 1484 1470 1471 1476 1475 1471 1475 1481 1487 1494 1499 1502 1505 1505 1510 1516 1521 1526 1530 1535 1539 1542 1546 1550 1554 1558 1562 1565 1567 1570 1572 1575 1577 1579 1580 1580 1581 1582 1582 1582 1582 1582 1582 1582 1583 1583
1483 1485 1485 1477 1468 1472 1476 1475 1476 1476 1480 1485 1489 1495 1496 1497 1502 1509 1513 1518 1523 1527 1531 1535 1539 1543 1547 1550 1554 1557 1560 1563 1566 1569 1572 1574 1576 1577 1578 1579 1580 1581 1581 1581 1581 1582 1582 1582 1582
1479 1484 1487 1477 1469 1470 1473 1475 1473 1473 1469 1472 1479 1489 1490 1493 1501 1503 1508 1513 1517 1520 1524 1529 1533 1538 1542 1546 1550 1554 1557 1560 1563 1566 1569 1571 1573 1574 1576 1577 1578 1579 1579 1579 1580 1581 1582 1581 1582
1478 1481 1481 1482 1472 1470 1474 1482 1475 1471 1472 1477 1479 1479 1486 1490 1491 1497 1501 1504 1509 1514 1517 1522 1527 1532 1537 1542 1546 1549 1553 1556 1558 1561 1564 1567 1570 1572 1573 1574 1576 1577 1578 1578 1580 1581 1581 1580 1581
1485 1468 1471 1476 1484 1498 1474 1504 1476 1468 1469 1469 1473 1476 1479 1484 1488 1492 1496 1500 1503 1505 1512 1518 1523 1528 1532 1537 1540 1543 1546 1548 1551 1555 1560 1563 1567 1569 1570 1572 1573 1575 1576 1577 1577 1578 1579 1580 1581
1464 1460 1468 1471 1480 1484 1481 1494 1474 1465 1472 1466 1464 1467 1470 1475 1480 1483 1485 1489 1492 1500 1504 1510 1515 1521 1526 1530 1534 1538 1541 1544 1548 1552 1555 1558 1562 1565 1567 1569 1571 1572 1573 1574 1575 1575 1577 1578 1580
1453 1460 1471 1479 1488 1499 1479 1485 1479 1469 1457 1457 1456 1460 1463 1468 1471 1476 1479 1485 1490 1496 1500 1504 1508 1512 1518 1523 1528 1531 1535 1539 1543 1547 1551 1554 1557 1560 1563 1565 1567 1569 1570 1571 1572 1573 1575 1576 1577
1452 1473 1502 1503 1502 1484 1468 1480 1450 1443 1439 1440 1443 1448 1451 1457 1463 1468 1474 1476 1481 1486 1490 1495 1500 1505 1510 1515 1521 1525 1529 1534 1538 1542 1546 1549 1552 1555 1558 1561 1563 1565 1567 1568 1569 1571 1573 1574 1575
1453 1466 1496 1507 1502 1481 1472 1466 1448 1429 1431 1433 1433 1432 1440 1449 1452 1456 1460 1466 1470 1475 1481 1486 1491 1497 1502 1507 1512 1518 1523 1527 1532 1536 1541 1544 1547 1550 1555 1557 1559 1561 1563 1565 1566 1568 1570 1572 1573
1451 1457 1452 1478 1478 1487 1470 1447 1429 1424 1427 1427 1428 1430 1435 1438 1443 1444 1450 1455 1460 1466 1471 1476 1483 1488 1494 1499 1505 1511 1516 1520 1525 1529 1534 1538 1542 1546 1549 1552 1555 1557 1559 1561 1563 1565 1567 1569 1571
1428 1436 1464 1483 1486 1491 1470 1456 1444 1429 1421 1422 1426 1425 1424 1427 1431 1434 1440 1446 1450 1455 1458 1467 1474 1479 1485 1491 1496 1502 1508 1514 1519 1523 1528 1531 1535 1540 1543 1547 1550 1552 1555 1557 1559 1561 1564 1566 1568
1428 1435 1444 1448 1469 1475 1484 1450 1421 1416 1414 1410 1410 1411 1413 1417 1420 1423 1428 1432 1437 1446 1451 1455 1462 1470 1476 1482 1488 1494 1500 1506 1512 1515 1521 1526 1529 1533 1537 1541 1545 1547 1550 1553 1556 1558 1560 1562 1565
1403 1415 1431 1449 1459 1463 1463 1434 1400 1400 1398 1403 1404 1406 1408 1411 1411 1414 1417 1423 1430 1434 1443 1445 1452 1459 1464 1471 1479 1484 1491 1498 1502 1507 1513 1520 1523 1527 1531 1535 1539 1541 1545 1548 1550 1553 1556 1558 1560